Powrót do katalogu

STARLINK-31715

AktywnyŁącznośćVLEO
NORAD 59384·PAYLOAD·🇺🇸 United States

Wystrzelony Apr 2, 2024 z Vandenberg Space Force Base

Loading…

Następne Przeloty (najbliższe 24 godziny)

TLE

ŚwieżeSource: CelesTrak SupGP

Epoka: Sep 14, 2026, 22:15 UTC

1 59384C 24062L   26257.92756944 -.00002389  00000+0 -70607-4 0  2575
2 59384  53.1567  93.8258 0001309  90.6912 310.2022 15.34383600    17

Śledź STARLINK-31715 w czasie rzeczywistym z AllMySat

Download on the App Store